カタログに戻る

BREEZE-M DEB

LostHEO
NORAD 34246·DEBRIS·🇷🇺 Russia

打ち上げ Feb 28, 2006 から Baikonur Cosmodrome

Loading…

次のパス (今後24時間)

TLE

古いSource: Space-Track

元期: Oct 8, 2021, 22:35 UTC

1 34246U 06006BM  21281.94143599  .00000667  00000-0  47935-3 0  9999
2 34246  51.5578 124.8988 4564335 250.0453  56.3328  6.17951712199758

AllMySatでBREEZE-M DEBをリアルタイム追跡

Download on the App Store